| time (UTC) | temp C | wind direction | speed KPH | gust KPH | rain 1hr cm | rain 24hr cm | rain mn cm | humidity % | barometer mb |
| 20260508140728 | 12 | 339 | 11.3 | 24.1 | 0.00 | 0.03 | 0.00 | 30 | 1025.3 |
| 20260508134728 | 12 | 308 | 12.9 | 24.1 | 0.00 | 0.03 | 0.00 | 30 | 1025.3 |
| 20260508132728 | 11 | 309 | 9.7 | 20.9 | 0.00 | 0.03 | 0.00 | 32 | 1025.3 |
| 20260508125057 | 11 | 335 | 14.5 | 25.7 | 0.00 | 0.03 | 0.00 | 36 | 1025.3 |
| 20260508121056 | 11 | 337 | 12.9 | 24.1 | 0.00 | 0.03 | 0.00 | 33 | 1025.2 |
| 20260508115055 | 11 | 329 | 12.9 | 24.1 | 0.00 | 0.03 | 0.00 | 34 | 1025.1 |
| 20260508113057 | 10 | 331 | 16.1 | 27.4 | 0.00 | 0.03 | 0.00 | 36 | 1025.1 |
| 20260508105056 | 10 | 312 | 17.7 | 32.2 | 0.00 | 0.03 | 0.00 | 37 | 1024.8 |
| 20260508103056 | 10 | 321 | 17.7 | 33.8 | 0.00 | 0.03 | 0.00 | 40 | 1024.6 |
| 20260508101056 | 10 | 318 | 16.1 | 29.0 | 0.00 | 0.03 | 0.00 | 44 | 1024.7 |
| 20260508095056 | 9 | 322 | 14.5 | 24.1 | 0.00 | 0.03 | 0.00 | 44 | 1024.6 |
| 20260508093055 | 9 | 315 | 17.7 | 27.4 | 0.00 | 0.03 | 0.00 | 47 | 1024.5 |
| 20260508091056 | 8 | 325 | 14.5 | 27.4 | 0.00 | 0.03 | 0.00 | 45 | 1024.4 |
| 20260508084727 | 8 | 314 | 16.1 | 25.7 | 0.00 | 0.03 | 0.00 | 47 | 1024.4 |
| 20260508081056 | 7 | 320 | 11.3 | 20.9 | 0.00 | 0.03 | 0.00 | 59 | 1024.0 |
| 20260508073055 | 6 | 317 | 16.1 | 25.7 | 0.00 | 0.03 | 0.00 | 62 | 1023.9 |
| 20260508071056 | 6 | 315 | 14.5 | 24.1 | 0.00 | 0.03 | 0.00 | 67 | 1023.6 |
| 20260508064727 | 5 | 315 | 14.5 | 24.1 | 0.00 | 0.03 | 0.00 | 70 | 1023.3 |
| 20260508061056 | 4 | 317 | 14.5 | 22.5 | 0.00 | 0.03 | 0.00 | 81 | 1023.0 |
| 20260508052726 | 3 | 330 | 11.3 | 20.9 | 0.00 | 0.03 | 0.00 | 83 | 1022.5 |
| 20260508045055 | 3 | 325 | 16.1 | 22.5 | 0.00 | 0.03 | 0.00 | 85 | 1021.9 |
| 20260508041055 | 3 | 321 | 16.1 | 25.7 | 0.00 | 0.03 | 0.00 | 85 | 1021.5 |
| 20260508033055 | 2 | 327 | 12.9 | 20.9 | 0.00 | 0.03 | 0.00 | 90 | 1021.1 |
| 20260508030726 | 2 | 328 | 16.1 | 25.7 | 0.00 | 0.03 | 0.00 | 90 | 1020.8 |
| 20260508023054 | 2 | 325 | 17.7 | 30.6 | 0.00 | 0.03 | 0.00 | 90 | 1020.0 |
| 20260508021054 | 2 | 319 | 17.7 | 30.6 | 0.00 | 0.03 | 0.00 | 91 | 1019.8 |
| 20260508014725 | 2 | 319 | 14.5 | 30.6 | 0.00 | 0.03 | 0.00 | 90 | 1019.5 |
| 20260508012725 | 2 | 294 | 9.7 | 24.1 | 0.00 | 0.03 | 0.00 | 90 | 1019.3 |
| 20260508010725 | 2 | 305 | 9.7 | 16.1 | 0.00 | 0.03 | 0.00 | 91 | 1019.0 |
| 20260508004725 | 2 | 290 | 9.7 | 14.5 | 0.00 | 0.03 | 0.00 | 90 | 1018.9 |
| 20260508000725 | 2 | 289 | 8.0 | 16.1 | 0.00 | 0.03 | 0.00 | 87 | 1018.7 |
| 20260507234725 | 2 | 301 | 8.0 | 16.1 | 0.00 | 0.03 | 0.00 | 84 | 1018.5 |
| 20260507232726 | 3 | 295 | 8.0 | 14.5 | 0.00 | 0.03 | 0.00 | 83 | 1018.2 |
| 20260507230725 | 3 | 295 | 6.4 | 9.7 | 0.00 | 0.03 | 0.00 | 82 | 1018.0 |
| 20260507223054 | 3 | 300 | 6.4 | 12.9 | 0.00 | 0.03 | 0.00 | 79 | 1017.6 |
| 20260507221054 | 3 | 295 | 8.0 | 12.9 | 0.00 | 0.03 | 0.00 | 77 | 1017.5 |
| 20260507215054 | 4 | 316 | 4.8 | 8.0 | 0.03 | 0.03 | 0.00 | 79 | 1017.4 |
| 20260507212724 | 4 | 319 | 6.4 | 9.7 | 0.03 | 0.03 | 0.00 | 80 | 1017.2 |
| 20260507210724 | 4 | 303 | 6.4 | 12.9 | 0.03 | 0.03 | 0.00 | 77 | 1017.1 |
| 20260507204724 | 4 | 288 | 6.4 | 11.3 | 0.00 | 0.00 | 0.00 | 83 | 1017.0 |
| 20260507201054 | 6 | 301 | 11.3 | 20.9 | 0.00 | 0.00 | 0.00 | 70 | 1017.0 |
| 20260507194725 | 6 | 314 | 9.7 | 16.1 | 0.00 | 0.00 | 0.00 | 69 | 1016.7 |
| 20260507185053 | 8 | 324 | 12.9 | 27.4 | 0.00 | 0.00 | 0.00 | 47 | 1015.5 |
| 20260507182724 | 8 | 327 | 14.5 | 25.7 | 0.00 | 0.00 | 0.00 | 43 | 1015.2 |
| 20260507175053 | 10 | 294 | 8.0 | 14.5 | 0.00 | 0.00 | 0.00 | 32 | 1014.4 |
| 20260507173052 | 10 | 242 | 8.0 | 16.1 | 0.00 | 0.00 | 0.00 | 29 | 1014.4 |
| 20260507171052 | 10 | 225 | 9.7 | 25.7 | 0.00 | 0.00 | 0.00 | 28 | 1014.4 |
| 20260507165053 | 10 | 135 | 4.8 | 8.0 | 0.00 | 0.00 | 0.00 | 28 | 1014.2 |
| 20260507162723 | 10 | 106 | 6.4 | 8.0 | 0.00 | 0.00 | 0.00 | 27 | 1014.2 |
| 20260507160723 | 11 | 114 | 6.4 | 11.3 | 0.00 | 0.00 | 0.00 | 26 | 1014.1 |
| 20260507154723 | 11 | 122 | 8.0 | 14.5 | 0.00 | 0.00 | 0.00 | 26 | 1014.2 |
| 20260507151053 | 12 | 168 | 4.8 | 8.0 | 0.00 | 0.00 | 0.00 | 25 | 1014.4 |
| 20260507142723 | 11 | 86 | 8.0 | 14.5 | 0.00 | 0.00 | 0.00 | 26 | 1014.6 |